"Pseudo-MPEC" for C0E9V15

Created 2022 Nov 25 13:22:07 UT using Find_Orb

Click here for an explanation of pseudo-MPECs

 
 Astrometry: 
     C0E9V15* C2022 11 24D?-nUAstrometryGMr=k#1(8#aT0kS,Iy%77k61x*fpR]x$Ti^XfV00
     C0E9V15  C2022 11 24p$f12Pe7Kd-R3_7SVC6TGkw,IwrsU9*AC,,Z1Kv'M]4:CKmSn*aoV00
     C0E9V15  C2022 11 24O^!R5NKEA/fdoMEZxua%YOsV@cH$JrSbs+Q!0PB?qahD`Hv[d!n9V00
     C0E9V15  C2022 11 24NJnn3s7hSb2_=B5:,!*Pa-vq[k0/;$X)uQtc1(%CgC@V]6c8@mSMV00
     C0E9V15 KC2022 11 24.45521 03 49 31.25 +26 17 23.2    ~BOBq 21.3 GVNEOCP291
     C0E9V15 KC2022 11 24.45996 03 49 34.48 +26 17 35.6    ~BOBq 21.0 GVNEOCP291
     C0E9V15  C2022 11 24tODUt/?j3ws.(Gr9)w7ptWM1mj#g]Vo1`mAZ`J67wx?ypX(HISvZF51
     C0E9V15  C2022 11 24.MJeoaBds\1:4TA$kr0qMBTOl-KLg3TkyIRugKWx?M2sHjdAmNltF51
     C0E9V15  C2022 11 24KI=-NCNbw?;r6gwGf=NRjwCUrj]d.?g%;IUWNr!FbBDc.;8;+i8:F51
     C0E9V15 IC2022 11 24a(xYF`x3fYNi4,redacted;ibXDcuga^OvDa?\VdT:dn8wZqL#_2L01
     C0E9V15 KC2022 11 24Gjk?e2$\`w@CSaa:LV-#jXOnr;;N,`mKMsOi/*O,$L:$h!snWZqHL01
     C0E9V15 KC2022 11 24l!pd18HK_Nx2#gA-q(ewBj?C=3UQ+WC`Mb8T%c:SbL0)HTP)RLMqL01
     C0E9V15 KC2022 11 24ID_$uD[s*b[,ied)0O/XGb*J42A]0Z`$wYb`no:]Z$AS^Q\Hc)fKL01
     C0E9V15 KC2022 11 24g69y1P0llpJD)3^w\x4pW/I;`+c#h)NV?AU+r?wi!br4FIJy8AVGL01
     C0E9V15 KC2022 11 24jK.Piernt85*CaIt9OBedC5hBM/Rt#\PlHH?pCW+MTmv(MiWoUu8K88
     C0E9V15 KC2022 11 24DdZKsfEMDclick\Wj^/TI@9Pt`V3ph)%cAI'VhereNUBM\f/:WGtK88
     C0E9V15 KC2022 11 24fUw-IM[/-lC#ZL\wG_Y#34aJ@JdQL8r'5YP:`J`]'@/0#Qh7eBR5958
     C0E9V15 KC2022 11 24bT:NFf06E:R9TV7^@V81YiSJ.ux7Y,QaRqqhfuV@+VXCP2yCCYfP958
     C0E9V15 KC2022 11 25)OK`'cs3nZ?f,b(r78lBHJfS]ePZDp1(E6BS;9HO3h[OJ-fc.e$N958
     C0E9V15 KC2022 11 25;:HP8?;@QE_W8--KuBTyP@*)(bW$qI.0hI*,TGQ9XD?oObJOlDkP734
     C0E9V15 KC2022 11 25Ms8+NpVw$f?'KK\rWu*!vJJKfNT2sFbsT+G%x)(=1-iGforYBdUr734
     C0E9V15 KC2022 11 25h%xTT,@'R\'6g';)yeCdsf1RfSpA^!Xl/d26qnqw_8$Tu*S;(qhn734
     C0E9V15 KC2022 11 25(t[6kVOWNvf8.V/WN`@eJIXWQOyFXs[nd7dnI8j5PRl:/t%:?P0i734
     C0E9V15  C2022 11 25bA@7@@o:!=Xm'sJQ$#wfKrF@8PP[8LUOFvy`QpsDxy`K$lO'CGGoV00
     C0E9V15  C2022 11 25@mi2wsm5EH?lx,P4YtfY5l]'AJi?scgbud\B[j?MC74s%mmF\8=cV00
     C0E9V15  C2022 11 2535hUaeB$:`:\:u'3#JJ7w*^j*e'v(j/X2MtQIRl/l(JA/]DYb5VFV00
     C0E9V15  C2022 11 25t!P_(AL59_!@Y-ieySW'#xk:wJ2[explanation,6,Er2gDHZ)#!V00

Station data:
(291) LPL/Spacewatch II  (N31.961669 W111.599905)  US/Arizona.  Observers J.
   V. Scotti, R. S. McMillan. 1.8-m f/2.7 reflector + CCD.
(734) Farpoint Observatory, Eskridge  (N38.890104 W96.001400)  US/Kansas.
   Observer G. Hug. 0.69-m reflector + CCD.
(958) Observatoire de Dax  (N43.693324 W1.030390)  France.  Observer P.
   Dupouy. 0.32-m Schmidt-Cassegrain.
(F51) Pan-STARRS 1, Haleakala  (N20.707234 W156.255910)  US/Hawaii.
   Observers J. Bulger, T. Lowe, A. Schultz, M. Willman. Measurers K.
   Chambers, S. Chastel, T. de Boer, L. Denneau, J. Fairlamb, H. Flewelling,
   M. Huber, C.-C. Lin, E. Magnier, Y. Ramanjooloo, R. Wainscoat, R. Weryk.
   1.8-m Ritchey-Chrétien + CCD.
(K88) GINOP-KHK, Piszkéstető  (N47.917619 E19.893600)  Hungary.  Observer K.
   Sárneczky. 0.60-m Schmidt + CCD.
(L01) Višnjan Observatory, Tičan  (N45.290897 E13.749300)  Croatia.
   Observers K. Korlević, D. Pujagic, V. Dobos. Measurers D. Pujagic, K.
   Korlević. 1.0-m f/2.9 reflector + CCD.
(V00) Kitt Peak-Bok  (N31.963125 W111.600190)  US/Arizona.  Observers T. A.
   Pruyne, B. M. Africano, E. J. Christensen, G. A. Farneth, D. C. Fuls, A.
   R. Gibbs, A. D. Grauer, H. Gröller, J. A. Johnson, R. A. Kowalski, S. M.
   Larson, G. J. Leonard, D. Rankin, R. L. Seaman, F. C. Shelly, K. W.
   Wierzchoś. 2.25-m reflector + CCD.

Orbital elements:  C0E9V15
   Perihelion 2023 Jan 4.45872 +/- 0.0144 TT = 11:00:33 (JD 2459948.95872)
Epoch 2022 Nov 25.0 TT = JDT 2459908.5   Earth MOID: 0.0010   Ma: 0.0113
M 339.01876979 +/- 0.034            (J2000 ecliptic)          AutoNEOCP
n   0.51858366 +/- 0.000698         Peri.  219.78840 +/- 0.026
a   1.53434667 +/- 0.00138          Node   253.14885 +/- 0.011
e   0.4076665 +/- 0.000572          Incl.    0.94419 +/- 0.0011
P   1.90/694.19d           H 27.7   G  0.15   U  7.9
q 0.90884484 +/- 9.77e-5    Q 2.15984850 +/- 0.00281
From 27 observations 2022 Nov. 24-25 (24.6 hr); mean residual 0".36
Residuals in arcseconds: 
221124 V00  .07+  .15-    221124 L01  .41-  .46+    221125 958  .18+  .78-    
221124 V00  .09-  .17-    221124 L01  .26-  .10+    221125 734  .48+  .47-    
221124 V00  .04+  .07-    221124 L01  .09-  .05-    221125 734  .47+  .10+    
221124 V00  .02-  .08-    221124 L01  .06-  .28-    221125 734  .14+  .08+    
221124 291  .09-  .92+    221124 L01  .16-  .41-    221125 734  1.2-  .93+    
221124 291  .32-  .14+    221124 K88  .33-  .21-    221125 V00  .02+  .01+    
221124 F51  .17+  .14-    221124 K88  .19+  .21+    221125 V00  .11-  .07-    
221124 F51  .24+  .07-    221124 958  .82+  .08+    221125 V00  .19+  .35+    
221124 F51  .05+  .15-    221124 958  .17+  .48-    221125 V00  .28-  .00     

Ephemerides (geocentric):
Date (UTC) HH   RA             Dec           delta  r     elong  mag " sig PA
---- --------  ------------   ------------  ------ ------ -----  --- --------
2022 11 25 13  04 05 55.121   +27 27 01.19  .02659 1.0136 173.3 20.4 .267  49
2022 11 25 14  04 06 40.014   +27 29 58.75  .02640 1.0134 173.2 20.4 .297  51
2022 11 25 15  04 07 25.594   +27 32 57.90  .02621 1.0132 173.2 20.4 .330  52
2022 11 25 16  04 08 11.874   +27 35 58.65  .02603 1.0130 173.1 20.4 .366  54
2022 11 25 17  04 08 58.871   +27 39 01.01  .02584 1.0128 173.0 20.3 .406  55
2022 11 25 18  04 09 46.598   +27 42 04.98  .02565 1.0126 173.0 20.3 .450  57
2022 11 25 19  04 10 35.074   +27 45 10.57  .02546 1.0124 172.9 20.3 .496  58
2022 11 25 20  04 11 24.312   +27 48 17.79  .02528 1.0122 172.8 20.3 .547  59
2022 11 25 21  04 12 14.331   +27 51 26.64  .02509 1.0120 172.8 20.3 .601  60
2022 11 25 22  04 13 05.147   +27 54 37.12  .02490 1.0118 172.7 20.3 .660  61
2022 11 25 23  04 13 56.779   +27 57 49.24  .02472 1.0116 172.6 20.3 .722  62
2022 11 26 00  04 14 49.244   +28 01 02.99  .02453 1.0114 172.5 20.2 .789  63
2022 11 26 01  04 15 42.560   +28 04 18.38  .02435 1.0112 172.4 20.2 .861  64
2022 11 26 02  04 16 36.748   +28 07 35.40  .02416 1.0110 172.3 20.2 .937  64
2022 11 26 03  04 17 31.826   +28 10 54.05  .02398 1.0108 172.2 20.2 1.02  65
2022 11 26 04  04 18 27.814   +28 14 14.33  .02379 1.0106 172.1 20.2 1.10  66
2022 11 26 05  04 19 24.735   +28 17 36.22  .02361 1.0104 172.0 20.2 1.20  66
2022 11 26 06  04 20 22.607   +28 20 59.73  .02343 1.0102 171.9 20.2 1.29  67
2022 11 26 07  04 21 21.455   +28 24 24.85  .02324 1.0100 171.8 20.2 1.39  67
2022 11 26 08  04 22 21.299   +28 27 51.55  .02306 1.0099 171.7 20.1 1.50  68
2022 11 26 09  04 23 22.163   +28 31 19.83  .02288 1.0097 171.5 20.1 1.62  68
2022 11 26 10  04 24 24.071   +28 34 49.67  .02270 1.0095 171.4 20.1 1.74  69
2022 11 26 11  04 25 27.047   +28 38 21.06  .02252 1.0093 171.3 20.1 1.86  69
2022 11 26 12  04 26 31.115   +28 41 53.97  .02234 1.0091 171.1 20.1 2.00  70
2022 11 26 13  04 27 36.303   +28 45 28.38  .02216 1.0089 171.0 20.1 2.14  70
2022 11 26 14  04 28 42.635   +28 49 04.26  .02198 1.0087 170.8 20.1 2.29  70
2022 11 26 15  04 29 50.139   +28 52 41.58  .02180 1.0085 170.7 20.1 2.44  71
2022 11 26 16  04 30 58.844   +28 56 20.31  .02162 1.0083 170.5 20.1 2.61  71
2022 11 26 17  04 32 08.776   +29 00 00.42  .02144 1.0081 170.3 20.0 2.78  71
2022 11 26 18  04 33 19.967   +29 03 41.86  .02126 1.0079 170.2 20.0 2.96  72
2022 11 26 19  04 34 32.445   +29 07 24.58  .02108 1.0077 170.0 20.0 3.15  72
2022 11 26 20  04 35 46.242   +29 11 08.55  .02090 1.0075 169.8 20.0 3.35  72
2022 11 26 21  04 37 01.389   +29 14 53.70  .02073 1.0073 169.6 20.0 3.56  73
2022 11 26 22  04 38 17.920   +29 18 39.98  .02055 1.0071 169.4 20.0 3.78  73
2022 11 26 23  04 39 35.868   +29 22 27.32  .02038 1.0069 169.2 20.0 4.01  73
2022 11 27 00  04 40 55.266   +29 26 15.66  .02020 1.0067 169.0 20.0 4.25  74
2022 11 27 01  04 42 16.151   +29 30 04.92  .02003 1.0066 168.8 19.9 4.50  74
2022 11 27 02  04 43 38.558   +29 33 55.02  .01985 1.0064 168.6 19.9 4.76  74
2022 11 27 03  04 45 02.524   +29 37 45.87  .01968 1.0062 168.4 19.9 5.04  75
2022 11 27 04  04 46 28.088   +29 41 37.37  .01951 1.0060 168.1 19.9 5.33  75
2022 11 27 05  04 47 55.289   +29 45 29.43  .01933 1.0058 167.9 19.9 5.63  75
2022 11 27 06  04 49 24.166   +29 49 21.93  .01916 1.0056 167.6 19.9 5.95  76
2022 11 27 07  04 50 54.761   +29 53 14.76  .01899 1.0054 167.4 19.9 6.28  76
2022 11 27 08  04 52 27.115   +29 57 07.79  .01882 1.0052 167.1 19.9 6.62  76
2022 11 27 09  04 54 01.272   +30 01 00.87  .01865 1.0050 166.9 19.9 6.98  76
2022 11 27 10  04 55 37.276   +30 04 53.87  .01848 1.0048 166.6 19.9 7.36  77
2022 11 27 11  04 57 15.170   +30 08 46.62  .01831 1.0046 166.3 19.8 7.75  77
2022 11 27 12  04 58 55.003   +30 12 38.96  .01815 1.0044 166.0 19.8 8.16  77